• In Portugal
  • List of Countries
  • For 7 days
  • Water Temperature
  • Satellite Maps
  • Weather Map
  • Weather Widgets
  • user-avatar
    Login

    Hourly Weather Kitzbuhel

    Today, 20 August, Monday

    Time Temperature Precipitation Wind Pressure Humidity
    00:00 +15°C° 0 mm 1 mps 681 mmHg 92%
    01:00 +15°C° 0 mm 1 mps 681 mmHg 92%
    02:00 +15°C° 0 mm 1 mps 680 mmHg 93%
    03:00 +15°C° 0 mm 1 mps 680 mmHg 93%
    04:00 +14°C° 0 mm 1 mps 680 mmHg 93%
    05:00 +15°C° 0 mm 1 mps 680 mmHg 92%
    06:00 +16°C° 0 mm 1 mps 681 mmHg 90%
    07:00 +18°C° 0 mm 1 mps 681 mmHg 89%
    08:00 +20°C° 0.1 mm 1 mps 681 mmHg 81%
    09:00 +22°C° 0.1 mm 1 mps 682 mmHg 73%
    10:00 +24°C° 0.1 mm 1 mps 682 mmHg 65%
    11:00 +25°C° 0.4 mm 1 mps 682 mmHg 64%
    12:00 +25°C° 0.4 mm 1 mps 682 mmHg 63%
    13:00 +25°C° 0.4 mm 2 mps 682 mmHg 61%
    14:00 +25°C° 0.7 mm 2 mps 681 mmHg 65%
    15:00 +24°C° 0.7 mm 1 mps 681 mmHg 69%
    16:00 +24°C° 0.7 mm 1 mps 681 mmHg 72%
    17:00 +22°C° 0.6 mm 1 mps 681 mmHg 79%
    18:00 +21°C° 0.6 mm 1 mps 680 mmHg 85%
    19:00 +17°C° 0.6 mm 0 mps 680 mmHg 91%
    20:00 +18°C° 0.2 mm 1 mps 680 mmHg 93%
    21:00 +18°C° 0.2 mm 1 mps 681 mmHg 94%
    22:00 +16°C° 0.2 mm 1 mps 681 mmHg 96%
    23:00 +16°C° 0 mm 1 mps 681 mmHg 96%

    Tomorrow, 21 August, Tuesday

    Time Temperature Precipitation Wind Pressure Humidity
    00:00 +16°C° 0 mm 1 mps 681 mmHg 97%
    01:00 +15°C° 0 mm 1 mps 681 mmHg 97%
    02:00 +15°C° 0 mm 1 mps 681 mmHg 97%
    03:00 +15°C° 0 mm 1 mps 681 mmHg 97%
    04:00 +14°C° 0 mm 1 mps 680 mmHg 97%
    05:00 +15°C° 0 mm 1 mps 681 mmHg 95%
    06:00 +16°C° 0 mm 1 mps 681 mmHg 93%
    07:00 +16°C° 0 mm 0 mps 681 mmHg 92%
    08:00 +20°C° 0 mm 1 mps 681 mmHg 82%
    09:00 +22°C° 0 mm 1 mps 682 mmHg 73%
    10:00 +24°C° 0 mm 1 mps 682 mmHg 63%
    11:00 +25°C° 0.2 mm 1 mps 682 mmHg 61%
    12:00 +25°C° 0.2 mm 1 mps 682 mmHg 59%
    13:00 +26°C° 0.2 mm 2 mps 682 mmHg 58%
    14:00 +26°C° 0.8 mm 2 mps 681 mmHg 62%
    15:00 +25°C° 0.8 mm 2 mps 681 mmHg 67%
    16:00 +25°C° 0.8 mm 2 mps 681 mmHg 71%
    17:00 +23°C° 1 mm 2 mps 680 mmHg 78%
    18:00 +21°C° 1 mm 1 mps 680 mmHg 84%
    19:00 +20°C° 1 mm 1 mps 680 mmHg 90%
    20:00 +19°C° 0.4 mm 1 mps 680 mmHg 92%
    21:00 +18°C° 0.4 mm 1 mps 680 mmHg 93%
    22:00 +18°C° 0.4 mm 1 mps 680 mmHg 94%
    23:00 +16°C° 0.1 mm 1 mps 680 mmHg 94%

    Day after tomorrow, 22 August, Wednesday

    Time Temperature Precipitation Wind Pressure Humidity
    00:00 +16°C° 0.1 mm 1 mps 680 mmHg 94%
    01:00 +16°C° 0.1 mm 1 mps 680 mmHg 94%
    02:00 +15°C° 0.1 mm 1 mps 680 mmHg 94%
    03:00 +15°C° 0.1 mm 1 mps 680 mmHg 94%
    04:00 +15°C° 0.1 mm 1 mps 680 mmHg 93%
    05:00 +16°C° 0.1 mm 1 mps 680 mmHg 92%
    06:00 +18°C° 0.1 mm 1 mps 680 mmHg 90%
    07:00 +18°C° 0.1 mm 1 mps 680 mmHg 88%
    08:00 +21°C° 0 mm 1 mps 681 mmHg 78%
    09:00 +23°C° 0 mm 1 mps 681 mmHg 69%
    10:00 +25°C° 0 mm 1 mps 681 mmHg 59%
    11:00 +26°C° 0.7 mm 1 mps 681 mmHg 61%
    12:00 +26°C° 0.7 mm 1 mps 681 mmHg 63%
    13:00 +26°C° 0.7 mm 2 mps 680 mmHg 64%
    14:00 +25°C° 1.9 mm 2 mps 680 mmHg 69%
    15:00 +25°C° 1.9 mm 1 mps 680 mmHg 75%
    16:00 +24°C° 1.9 mm 1 mps 680 mmHg 80%
    17:00 +23°C° 1.7 mm 1 mps 679 mmHg 84%
    18:00 +21°C° 1.7 mm 1 mps 679 mmHg 87%
    19:00 +20°C° 1.7 mm 1 mps 679 mmHg 91%
    20:00 +19°C° 0.4 mm 1 mps 679 mmHg 92%
    21:00 +19°C° 0.4 mm 1 mps 679 mmHg 93%
    22:00 +18°C° 0.4 mm 1 mps 679 mmHg 94%
    23:00 +18°C° 0.2 mm 1 mps 679 mmHg 93%

    23 August, Thursday

    Time Temperature Precipitation Wind Pressure Humidity
    00:00 +18°C° 0.2 mm 1 mps 679 mmHg 93%
    01:00 +18°C° 0.2 mm 1 mps 679 mmHg 93%
    02:00 +16°C° 0.3 mm 1 mps 679 mmHg 93%
    03:00 +16°C° 0.3 mm 1 mps 678 mmHg 93%
    04:00 +16°C° 0.3 mm 1 mps 678 mmHg 93%
    05:00 +16°C° 0.1 mm 1 mps 678 mmHg 92%
    06:00 +18°C° 0.1 mm 1 mps 678 mmHg 91%
    07:00 +19°C° 0.1 mm 1 mps 679 mmHg 90%
    08:00 +20°C° 0.3 mm 1 mps 679 mmHg 82%
    09:00 +22°C° 0.3 mm 1 mps 679 mmHg 75%
    10:00 +22°C° 0.3 mm 0 mps 679 mmHg 67%
    11:00 +25°C° 0.8 mm 1 mps 679 mmHg 66%
    12:00 +25°C° 0.8 mm 1 mps 679 mmHg 65%
    13:00 +25°C° 0.8 mm 1 mps 678 mmHg 64%
    14:00 +25°C° 1.1 mm 1 mps 678 mmHg 67%
    15:00 +24°C° 1.1 mm 1 mps 678 mmHg 70%
    16:00 +24°C° 1.1 mm 1 mps 678 mmHg 73%
    17:00 +22°C° 1.4 mm 1 mps 677 mmHg 78%
    18:00 +21°C° 1.4 mm 1 mps 677 mmHg 84%
    19:00 +19°C° 1.4 mm 1 mps 677 mmHg 89%
    20:00 +19°C° 0.9 mm 1 mps 677 mmHg 91%
    21:00 +18°C° 0.9 mm 1 mps 677 mmHg 92%
    22:00 +18°C° 0.9 mm 1 mps 677 mmHg 94%
    23:00 +16°C° 0.1 mm 1 mps 677 mmHg 94%

    24 August, Friday

    Time Temperature Precipitation Wind Pressure Humidity
    00:00 +16°C° 0.1 mm 1 mps 676 mmHg 93%
    01:00 +15°C° 0.1 mm 1 mps 676 mmHg 93%
    02:00 +15°C° 0.2 mm 1 mps 676 mmHg 92%
    03:00 +15°C° 0.2 mm 1 mps 675 mmHg 92%
    04:00 +14°C° 0.2 mm 1 mps 675 mmHg 92%
    05:00 +15°C° 0 mm 1 mps 675 mmHg 91%
    06:00 +16°C° 0 mm 1 mps 675 mmHg 89%
    07:00 +18°C° 0 mm 1 mps 676 mmHg 88%
    08:00 +20°C° 0.1 mm 1 mps 676 mmHg 78%
    09:00 +22°C° 0.1 mm 1 mps 676 mmHg 67%
    10:00 +25°C° 0.1 mm 1 mps 676 mmHg 57%
    11:00 +24°C° 0.7 mm 1 mps 676 mmHg 62%
    12:00 +24°C° 0.7 mm 2 mps 676 mmHg 68%
    13:00 +23°C° 0.7 mm 2 mps 675 mmHg 73%
    14:00 +21°C° 2.4 mm 2 mps 675 mmHg 80%
    15:00 +19°C° 2.4 mm 2 mps 675 mmHg 87%
    16:00 +18°C° 2.4 mm 2 mps 675 mmHg 94%
    17:00 +17°C° 5.3 mm 2 mps 675 mmHg 95%
    18:00 +15°C° 5.3 mm 2 mps 675 mmHg 96%
    19:00 +14°C° 5.3 mm 2 mps 675 mmHg 98%
    20:00 +14°C° 2.1 mm 2 mps 675 mmHg 98%
    21:00 +13°C° 2.1 mm 2 mps 675 mmHg 98%
    22:00 +12°C° 2.1 mm 2 mps 675 mmHg 98%
    23:00 +12°C° 1.1 mm 2 mps 675 mmHg 98%

    25 August, Saturday

    Time Temperature Precipitation Wind Pressure Humidity
    00:00 +12°C° 1.1 mm 1 mps 675 mmHg 97%
    01:00 +12°C° 1.1 mm 1 mps 675 mmHg 97%
    02:00 +10°C° 1.3 mm 2 mps 674 mmHg 98%
    03:00 +10°C° 1.3 mm 2 mps 674 mmHg 98%
    04:00 +10°C° 1.3 mm 2 mps 674 mmHg 98%
    05:00 +9°C° 2.6 mm 2 mps 674 mmHg 98%
    06:00 +9°C° 2.6 mm 2 mps 674 mmHg 98%
    07:00 +8°C° 2.6 mm 2 mps 674 mmHg 98%
    08:00 +8°C° 2.3 mm 2 mps 674 mmHg 98%
    09:00 +8°C° 2.3 mm 2 mps 674 mmHg 98%
    10:00 +8°C° 2.3 mm 2 mps 674 mmHg 98%
    11:00 +8°C° 1.8 mm 2 mps 674 mmHg 97%
    12:00 +8°C° 1.8 mm 2 mps 674 mmHg 97%
    13:00 +8°C° 1.8 mm 2 mps 674 mmHg 97%
    14:00 +8°C° 2.3 mm 2 mps 674 mmHg 97%
    15:00 +7°C° 2.3 mm 2 mps 674 mmHg 97%
    16:00 +7°C° 2.3 mm 2 mps 674 mmHg 98%
    17:00 +7°C° 2.5 mm 2 mps 674 mmHg 98%
    18:00 +7°C° 2.5 mm 2 mps 674 mmHg 98%
    19:00 +6°C° 2.5 mm 2 mps 674 mmHg 98%
    20:00 +6°C° 1.4 mm 2 mps 674 mmHg 98%
    21:00 +6°C° 1.4 mm 2 mps 674 mmHg 98%
    22:00 +6°C° 1.4 mm 2 mps 675 mmHg 98%
    23:00 +6°C° 0.2 mm 2 mps 675 mmHg 97%
    Show more